星链-1328 (STARLINK-1328 )

导读 | 豆包AI

STARLINK-1328是美国SpaceX公司星链计划中的一颗卫星,于2020年4月22日发射升空。星链项目旨在构建全球卫星互联网星座,为全球各地提供高速互联网接入服务,该卫星入轨后承担相关通信组网任务,是星链星座构建过程中的组成单元。

基本信息
目录编号:
45576
目录名称:
STARLINK-1328
国际标识:
2020-025AX
轨道中心:
EARTH
卫星名称:
星链-1328
卫星全名:
星链-1328 (STARLINK-1328 )
卫星状态:
已陨落 最后检测时间 2026-01-15
发射日期:
2020-04-22 UTC
国别 :
美国 (US)
星等 :
--
轨道信息
数据来源 国际轨道数据
星历时间: 2026-01-15T10:48:34+0800
轨道信息已过期79天
半长轴: 6534.743km
偏心率: 0.000525
轨道倾角: 53.034°
近地点辐角 260.776°
升交点赤经 249.004°
平近点角 99.269°
近地点: 153.175km
远地点: 160.037km
周期: 87.620分钟
每日圈数: 16.434634
详细信息
固有亮度:
5
最大亮度:
2.5
卫星平台:
Starlink V1.0
覆盖范围:
全球
运营商:
太空探索技术公司
运营商所在国:
美国
制造商(研发单位):
太空探索技术公司
制造商所在国:
美国
使用方式:
暂无
卫星简介
星链(Starlink)计划是由太空探索技术公司(SpaceX)提出的一个巨型低轨卫星互联网星座项目,计划在2019年至2024年间在太空搭建由约1.2万颗卫星组成的“星链”网络,其中1584颗将部署在地球上空550千米处的近地轨道,并从2020年开始工作。该卫星仍在工作。